STARLINK-1301, 45361

Orbit data source: Space-Track

STARLINK-1301, 45361 is a payload satellite owned by SpaceX/Seattle (US) in LEO that was launched on Wed, 18 Mar 2020 UTC via an FALCON 9 launch vehicle from the Air Force Eastern Test Range (AFETR). Payload-class satellites include a variety of spacecraft equipped with specific instruments for various scientific and technological missions. These include communications satellites like Starlink; space stations such as the ISS; scientific satellites like the Hubble; Earth observation satellites from companies like Planet Labs, Umbra, and HawkEye 360; GPS; miniature CubeSats for education and research; and military/defense satellites.

Loading next visibility...
Identifier
45361, 2020-019B
Orbit
LEO
Country
Flag of USUS
Related business
Manufacturer
SpaceX/Seattle
Mission
Partially operational Commercial Communications
Bus & Motor
STARLINK, Unknown motor
Mass
260 kg wet, ~248 kg dry
Launch date (UTC)
2020-03-18 (6 years ago)
Launch vehicle
FALCON 9
Launch site
Air Force Eastern Test Range (AFETR)
Object type
Payload
Rocket body
Debris
Shape & HBR
Box + 1 Pan, 10.1 m
Radar Cross Section
13.562 m², Large (>1 m²)

Expand to show TLE details & history
Last TLE update: 6 days ago

TLE from 6 days ago
0 STARLINK-1301
1 45361U 20019B   26151.97078152  .00091429  00000-0  57474-3 0  9990
2 45361  53.0369  52.0322 0005408 114.9532 245.2050 15.75981312343698
Epoch: 2026-05-31T23:17Z
TLE epoch observation values (Epoch: 2026-05-31T23:17:55.523Z)
Latitude
0.00004°
Longitude
173.08607°
Altitude
344.27 km
Speed
7.703 km/s
True Right ascension
03h 28m 07s
True Declination
0° 00' 00"
Sunlit
Object was in daylight at epoch
Visualization orbit readout
Latitude
Unknown
Longitude
Unknown
Altitude
Unknown
Speed
Unknown
Apparent Right ascension
Unknown
Apparent Declination
Unknown
Sunlit
N/A
Visualization observer readout
Local Sidereal Time
03:27:39
Azimuth
Unknown
Elevation
Unknown
Doppler factor
Unknown
Orbital elements
Apogee altitude
345.756 km
Perigee altitude
338.488 km
Semi-major axis
6,720.259 km
Eccentricity
0.00054
Inclination
53.0369°
RAAN
52.0322°
Arg. of periapsis
114.9532°
True anomaly
245.14876°
Mean anomaly
245.205°
Eccentric anomaly
245.17688°
Mean motion
3.93971 °/min
Orbital period
91.38 mins
BSTAR
0.00057474
Loading maneuver chart data...
Computing Atmospheric mass density...

Documentation

Showing up to 5 results
|